[[{"header":{"parameterUnit":"m.s-1","parameterCategory":1,"la1":30.2991,"la2":30.254,"lo1":-89.0895,"lo2":-89.0444,"dy":0.0017,"dx":0.0017,"nx":28,"ny":28,"refTime":"2024-06-09T03:00:00:Z","depth":0,"parameterNumber":2,"parameterNumberName":"U-component_of_WINDS"},"data":[0,0,0,0,0,0,0,0,0,0,0,0,0,0,0,0,0,0,0,0,0,0,0,0,0,0,0,0,0,0,0,0,0,0,0,0,0,0,0,0,0,0,0,0,0,0,0,0,0,0,0,0,0,0,0,0,0,0,0.6632,0.6633,0,0.6784,0.6786,0.6788,0.686,0.686,0.686,0.686,0.7018,0.7022,0.7026,0,0,0,0,0,0,0,0,0,0,0,0,0,0.6403,0.6407,0.6632,0.6634,0.6636,0.6784,0.6786,0.6788,0.686,0.686,0.686,0.6859,0.7016,0.7021,0.7026,0,0,0,0,0,0,0,0,0,0,0,0,0,0.6523,0.6408,0.6631,0.6689,0.6696,0.6784,0.6786,0.6789,0.686,0.686,0.686,0.6859,0.7015,0.7021,0.7027,0.707,0,0,0.7047,0.705,0,0,0,0,0,0,0,0,0.6517,0.6532,0.6679,0.6685,0.6693,0.6803,0.6764,0.6883,0.686,0.6798,0.686,0.6859,0.6946,0.6958,0.6987,0.7077,0.7084,0.7047,0.7051,0.7054,0.7056,0,0,0,0,0,0,0,0.6508,0.6526,0.6692,0.6681,0.6689,0.6708,0.6724,0.6786,0.6871,0.6803,0.6809,0.6826,0.695,0.6981,0.6992,0.7086,0.7047,0.7053,0.7057,0.7059,0.7217,0.7218,0,0,0,0,0,0,0.649,0.6518,0.6687,0.6697,0.6603,0.6712,0.6731,0.6768,0.687,0.6886,0.6826,0.6828,0.697,0.6984,0.6997,0.7054,0.7054,0.706,0.7064,0.7217,0.7217,0.7218,0,0,0,0,0,0,0.6485,0.6505,0.6681,0.6609,0.6633,0.6716,0.6757,0.6771,0.6802,0.6887,0.6903,0.6841,0.6971,0.6988,0.7051,0.706,0.7063,0.7069,0.7217,0.7217,0.7218,0.7166,0,0,0,0,0,0,0.6478,0.6502,0.6519,0.6609,0.6636,0.6732,0.6757,0.6774,0.6812,0.6818,0.6906,0.6921,0.6972,0.7041,0.7057,0.7069,0.7074,0.7216,0.7217,0.7217,0.7168,0.7165,0.7163,0,0,0,0,0,0.647,0.6499,0.652,0.654,0.6659,0.6732,0.6748,0.6805,0.6813,0.6831,0.6885,0.6918,0.7056,0.7047,0.7066,0.708,0.7216,0.7217,0.7217,0.7169,0.7165,0.7163,0,0,0,0,0,0,0.641,0.6512,0.6536,0.6596,0.6654,0.6744,0.6768,0.68,0.6859,0.6861,0.693,0.6949,0.7005,0.7049,0.7036,0.7126,0.7139,0.7144,0.7095,0.7093,0.7091,0.7079,0.7079,0,0,0,0,0,0.6403,0.6453,0.654,0.6584,0.6613,0.6685,0.6719,0.6758,0.6822,0.6847,0.6907,0.6968,0.7025,0.7061,0.7119,0.7174,0.7194,0.7193,0.719,0.7188,0.7191,0.7223,0.7223,0.722,0.722,0.722,0,0,0.6391,0.6453,0.6481,0.6574,0.6624,0.6674,0.6706,0.6758,0.6796,0.6855,0.6918,0.6963,0.7036,0.7094,0.7123,0.7133,0.7196,0.7189,0.7186,0.7191,0.7224,0.7224,0.7224,0.7221,0.7221,0.7221,0,0,0.6394,0.6446,0.6488,0.6537,0.6612,0.666,0.667,0.6755,0.6787,0.685,0.6895,0.6942,0.7039,0.7089,0.7127,0.7146,0.7178,0.7163,0.7151,0.7181,0.7181,0.7182,0.7188,0.719,0.7166,0.7166,0.7166,0,0.6369,0.6447,0.6506,0.6555,0.6595,0.6649,0.6692,0.6737,0.6827,0.6854,0.6862,0.6984,0.7037,0.7108,0.7112,0.7141,0.7155,0.7154,0.7176,0.7177,0.7179,0.7186,0.7188,0.7163,0.7164,0.7164,0.7164,0,0.6412,0.6465,0.649,0.6575,0.6617,0.6663,0.6729,0.6765,0.6799,0.6845,0.6909,0.6974,0.7045,0.7064,0.7099,0.714,0.7143,0.7163,0.7178,0.7175,0.7184,0.7187,0.716,0.7161,0.7162,0.7162,0,0,0.6383,0.6499,0.6507,0.6546,0.6632,0.6674,0.6722,0.679,0.682,0.6879,0.6921,0.7001,0.702,0.7063,0.7103,0.7129,0.714,0.7146,0.7149,0.7143,0.7188,0.7173,0.7175,0.7161,0.7162,0.7163,0.7182,0,0.6398,0.6487,0.6541,0.6607,0.6657,0.6708,0.675,0.6807,0.6851,0.69,0.6949,0.7005,0.7025,0.7051,0.7079,0.7133,0.715,0.7132,0.7202,0.7203,0.7182,0.718,0.7164,0.718,0.7186,0.7186,0.7187,0,0.6428,0.6486,0.6557,0.6637,0.6659,0.6696,0.6763,0.6808,0.6874,0.6904,0.6951,0.6991,0.7044,0.7053,0.7127,0.7113,0.7144,0.7175,0.7177,0.7186,0.7195,0.7189,0.7186,0.7188,0.7192,0.7192,0.7192,0,0.64,0.6495,0.655,0.6582,0.6676,0.67,0.674,0.6806,0.6843,0.6901,0.6926,0.699,0.7025,0.7073,0.7129,0.7131,0.7197,0.7211,0.7224,0.7222,0.7236,0.7235,0.7238,0.7255,0.7255,0.7255,0.7255,0,0.6412,0.6453,0.6539,0.6572,0.662,0.6681,0.6727,0.6771,0.6829,0.6872,0.692,0.696,0.7032,0.708,0.7124,0.7178,0.7193,0.7219,0.7231,0.7215,0.7212,0.7238,0.7238,0.7256,0.7255,0.7255,0.7255,0,0.6389,0.6448,0.6511,0.6594,0.6616,0.6647,0.6719,0.6753,0.6799,0.6853,0.6869,0.6942,0.7001,0.7062,0.7142,0.7172,0.7224,0.724,0.7202,0.7208,0.7217,0.7216,0.7238,0.7244,0.7256,0.7255,0.7255,0,0.6393,0.6426,0.6512,0.6544,0.6583,0.6634,0.6672,0.6733,0.6771,0.6847,0.6872,0.6934,0.6988,0.708,0.714,0.7201,0.7219,0.7222,0.7229,0.7212,0.7219,0.7217,0.722,0.722,0.722,0.7219,0.7219,0,0.6393,0.642,0.6473,0.6536,0.6579,0.6632,0.6686,0.6709,0.6781,0.682,0.6881,0.6922,0.7003,0.7064,0.7132,0.7174,0.7209,0.7216,0.7222,0.7207,0.7184,0.7197,0.7196,0.7216,0.7216,0.7216,0.7217,0.7217,0.6385,0.6416,0.6481,0.6538,0.6585,0.6634,0.667,0.672,0.6771,0.6842,0.6874,0.6935,0.6999,0.7093,0.7134,0.7182,0.7192,0.7201,0.7203,0.7205,0.7201,0.7175,0.7195,0.7195,0.7195,0.7196,0.7196,0,0.6388,0.6432,0.6484,0.6557,0.6602,0.6629,0.6689,0.6725,0.6777,0.6834,0.6884,0.6953,0.7013,0.7076,0.7139,0.7166,0.7183,0.718,0.7179,0.7188,0.7189,0.7177,0.7165,0.7165,0.7165,0.7165,0.7165,0.7165,0.6395,0.6449,0.6484,0.6561,0.6605,0.6665,0.6697,0.6742,0.6787,0.6862,0.6911,0.6952,0.7011,0.7078,0.7134,0.7151,0.7172,0.7165,0.7187,0.7186,0.7188,0.7191,0.718,0.7169,0.7169,0.7182,0.7182,0.7182]},{"header":{"parameterUnit":"m.s-1","parameterCategory":1,"la1":30.2991,"la2":30.254,"lo1":-89.0895,"lo2":-89.0444,"dy":0.0017,"dx":0.0017,"nx":28,"ny":28,"refTime":"2024-06-09T03:00:00:Z","depth":0,"parameterNumber":3,"parameterNumberName":"V-component_of_WINDS"},"data":[0,0,0,0,0,0,0,0,0,0,0,0,0,0,0,0,0,0,0,0,0,0,0,0,0,0,0,0,0,0,0,0,0,0,0,0,0,0,0,0,0,0,0,0,0,0,0,0,0,0,0,0,0,0,0,0,0,0,4.067,4.067,0,4.0626,4.0625,4.0624,4.0611,4.0611,4.0611,4.0612,4.0558,4.0557,4.0555,0,0,0,0,0,0,0,0,0,0,0,0,0,4.0739,4.0737,4.067,4.067,4.0669,4.0626,4.0625,4.0624,4.0611,4.0611,4.0611,4.0612,4.0559,4.0557,4.0555,0,0,0,0,0,0,0,0,0,0,0,0,0,4.0703,4.0737,4.0671,4.0658,4.0656,4.0626,4.0625,4.0624,4.0611,4.0611,4.0611,4.0612,4.0559,4.0557,4.0555,4.0532,0,0,4.0547,4.0546,0,0,0,0,0,0,0,0,4.0705,4.07,4.066,4.0658,4.0657,4.0624,4.0629,4.0593,4.0611,4.0628,4.0612,4.0612,4.0579,4.0575,4.0566,4.053,4.0527,4.0547,4.0545,4.0544,4.0544,0,0,0,0,0,0,0,4.0707,4.0702,4.0652,4.0659,4.0657,4.0652,4.0647,4.0622,4.0602,4.0626,4.0625,4.062,4.0579,4.0568,4.0565,4.0526,4.0547,4.0545,4.0543,4.0542,4.0469,4.0469,0,0,0,0,0,0,4.0713,4.0704,4.0654,4.0651,4.0682,4.065,4.0645,4.0634,4.0602,4.0598,4.062,4.062,4.0572,4.0567,4.0563,4.0534,4.0544,4.0542,4.0541,4.047,4.0469,4.0469,0,0,0,0,0,0,4.0714,4.0709,4.0656,4.0677,4.067,4.0649,4.0637,4.0633,4.0623,4.0598,4.0593,4.0614,4.0572,4.0566,4.054,4.0532,4.0541,4.0539,4.047,4.047,4.0469,4.0478,0,0,0,0,0,0,4.0716,4.0709,4.0702,4.0677,4.0669,4.0636,4.0636,4.0632,4.062,4.0619,4.0591,4.0586,4.0572,4.0544,4.0538,4.0529,4.0537,4.0471,4.047,4.0469,4.0478,4.0477,4.0477,0,0,0,0,0,4.0719,4.0704,4.0701,4.0695,4.066,4.0636,4.0631,4.0617,4.0619,4.061,4.0594,4.0587,4.0534,4.0542,4.0534,4.0525,4.0471,4.047,4.0469,4.0478,4.0477,4.0477,0,0,0,0,0,0,4.0725,4.0701,4.0697,4.0675,4.0658,4.0634,4.0622,4.0617,4.0597,4.0597,4.0578,4.0572,4.0548,4.0533,4.0542,4.0501,4.0502,4.05,4.0512,4.0511,4.051,4.0514,4.0535,0,0,0,0,0,4.0725,4.0709,4.0688,4.067,4.0662,4.0644,4.0632,4.0624,4.0604,4.0596,4.0578,4.0558,4.0537,4.0523,4.0502,4.0476,4.0469,4.0466,4.0465,4.0465,4.0463,4.0448,4.0446,4.0465,4.0465,4.0466,0,0,4.0722,4.0707,4.0698,4.0671,4.0657,4.0639,4.0637,4.0619,4.0605,4.0593,4.0568,4.0554,4.053,4.0504,4.0492,4.0492,4.0456,4.0464,4.0464,4.0461,4.0447,4.0445,4.0443,4.0465,4.0465,4.0465,0,0,4.0709,4.0696,4.068,4.0667,4.0646,4.0634,4.0631,4.0607,4.0598,4.0574,4.0564,4.0547,4.0511,4.0494,4.0481,4.0463,4.0455,4.0456,4.0453,4.0439,4.0437,4.0436,4.0429,4.0427,4.0454,4.0454,4.0454,0,4.0707,4.0683,4.0672,4.0655,4.0643,4.0633,4.0616,4.0603,4.0575,4.0566,4.0567,4.0523,4.0506,4.0476,4.0472,4.0462,4.0456,4.0459,4.0439,4.0437,4.0436,4.0429,4.0427,4.0455,4.0455,4.0455,4.0455,0,4.0683,4.0666,4.0655,4.0632,4.0619,4.0602,4.0586,4.0574,4.0566,4.0554,4.0529,4.0509,4.0484,4.0476,4.0467,4.0445,4.0446,4.0443,4.0444,4.0435,4.0428,4.0425,4.0455,4.0455,4.0455,4.0455,0,0,4.0671,4.0644,4.064,4.063,4.0607,4.0592,4.0574,4.0553,4.0542,4.0524,4.0507,4.0478,4.0476,4.0461,4.045,4.0438,4.0425,4.0436,4.0436,4.0435,4.0399,4.0401,4.0399,4.042,4.042,4.0419,4.0401,0,4.0655,4.0625,4.0615,4.0589,4.0573,4.0564,4.0548,4.0532,4.052,4.0503,4.0489,4.0468,4.0467,4.0458,4.0446,4.0429,4.0417,4.043,4.0403,4.0402,4.0409,4.0395,4.0397,4.0381,4.0398,4.0398,4.0398,0,4.0632,4.0616,4.059,4.057,4.0563,4.0549,4.0529,4.0513,4.0493,4.0486,4.047,4.0461,4.044,4.0443,4.0413,4.0422,4.041,4.04,4.0399,4.0396,4.0399,4.0391,4.0376,4.0373,4.0393,4.0394,4.0394,0,4.0626,4.0598,4.0579,4.057,4.0546,4.0537,4.0526,4.0507,4.0495,4.0477,4.0468,4.0447,4.0434,4.0417,4.0401,4.0405,4.0373,4.0374,4.0364,4.0365,4.0358,4.0358,4.034,4.0351,4.0351,4.0351,4.0351,0,4.0609,4.0593,4.0576,4.0564,4.0546,4.0534,4.0515,4.0503,4.0487,4.0471,4.0461,4.0446,4.0427,4.0409,4.0397,4.0374,4.0368,4.036,4.0357,4.0361,4.0362,4.0353,4.0353,4.035,4.035,4.035,4.035,0,4.0599,4.0588,4.0566,4.0547,4.0541,4.0528,4.051,4.0498,4.0486,4.0466,4.0461,4.0442,4.042,4.0404,4.0375,4.0366,4.0342,4.0338,4.035,4.0348,4.0339,4.034,4.0314,4.031,4.0323,4.0323,4.0323,0,4.0589,4.0577,4.0557,4.0547,4.0537,4.0521,4.051,4.0497,4.0484,4.0462,4.0452,4.043,4.0412,4.0378,4.036,4.0338,4.0334,4.0326,4.033,4.0335,4.0333,4.0334,4.0333,4.0325,4.0325,4.0325,4.0325,0,4.0572,4.0567,4.0552,4.0535,4.0523,4.0508,4.0493,4.0484,4.0468,4.0455,4.0435,4.0421,4.0393,4.0371,4.0348,4.0334,4.0326,4.0324,4.0321,4.0325,4.0332,4.0328,4.0348,4.0325,4.0325,4.0325,4.0325,4.0325,4.0562,4.0551,4.0536,4.0519,4.0507,4.0494,4.0481,4.0469,4.0453,4.0431,4.0423,4.0402,4.0382,4.0351,4.0337,4.0319,4.0318,4.0313,4.0312,4.0311,4.0311,4.0335,4.0314,4.0314,4.0314,4.0314,4.0314,0,4.0544,4.0534,4.052,4.05,4.0487,4.0484,4.0467,4.0456,4.0438,4.0422,4.0405,4.0382,4.0361,4.0342,4.032,4.0309,4.0305,4.0304,4.0304,4.0301,4.0313,4.0318,4.0307,4.0307,4.0307,4.0307,4.0307,4.0307,4.0534,4.0516,4.0509,4.0485,4.0474,4.0455,4.0446,4.0433,4.042,4.0395,4.0379,4.0368,4.035,4.0327,4.0307,4.0302,4.0294,4.0294,4.0288,4.0299,4.03,4.0301,4.0306,4.0292,4.0292,4.0277,4.0277,4.0277]}]]